Tracking 35274 objects as of 12-Sep-2026
HD Live streaming from Space Station
objects crossing your sky now

YAOGAN-39 04B

Track YAOGAN-39 04B now!
10-day predictions


NORAD ID: 58143
Int'l Code: 2023-163C
Launch date: October 23, 2023
Source: People's Republic of China (PRC)
Launch site: Xichang Space Center, China (XSC)
Your satellite tracking list
Your tracking list is empty




NASA's NSSDC Master Catalog

Two Line Element Set (TLE):
1 58143U 23163C   26254.93776780  .00004063  00000-0  20428-3 0  9994
2 58143  34.9933 188.3118 0010731 263.4192  96.5299 15.16653157160493
Source of the keplerian elements: AFSPC